Weather History for Tallahassee, FL

Change the Weather History Date:

Thursday, April 3, 2014

  Actual Average Record
Temperature  
Mean Temperature 68 °F 64 °F  
Max Temperature 85 °F 77 °F 89 °F (2006)
Min Temperature 50 °F 50 °F 33 °F (1971)
Degree Days  
Heating Degree Days 0    
Month to date heating degree days 5  
Since 1 July heating degree days 1322  
Cooling Degree Days 3    
Month to date cooling degree days 3  
Year to date cooling degree days 27  
Growing Degree Days 17 (Base 50)    
Moisture  
Dew Point 53 °F    
Average Humidity 64    
Maximum Humidity 93    
Minimum Humidity 34    
Precipitation  
Precipitation 0.00 in 0.12 in 4.67 in (1973)
Month to date precipitation 0.00 0.39  
Year to date precipitation 18.28 15.52  
Sea Level Pressure  
Sea Level Pressure 30.09 in    
Wind  
Wind Speed 6 mph (SSE)    
Max Wind Speed 17 mph    
Max Gust Speed 24 mph    
Visibility 6 miles    
Events Fog    
T = Trace of Precipitation, MM = Missing Value Source: NWS Daily Summary

Daily Weather History Graph

Daily Weather History Graph

Search for Another Location

Airport:

Trip Planner

Search our weather history database for the weather conditions in past years. The results will help you decide how hot, cold, wet, or windy it might be!

Date:

Astronomy

Apr. 03, 2014 Rise Set
Actual Time 7:24 AM EDT 7:57 PM EDT
Civil Twilight 6:59 AM EDT 8:21 PM EDT
Nautical Twilight 6:31 AM EDT 8:50 PM EDT
Astronomical Twilight 6:02 AM EDT 9:19 PM EDT
Moon 10:06 AM EDT (4/3) No Moon Set
Length of Visible Light 13h 21m
Length of Day
12h 33m
Waxing Crescent, 17% of the Moon is Illuminated
Apr 3
Waxing Crescent
Apr 7
First Quarter
Apr 15
Full
Apr 22
Last Quarter
Apr 29
New

Hourly Weather History & Observations

Time (EDT) Temp. Heat Index Dew Point Humidity Pressure Visibility Wind Dir Wind Speed Gust Speed Precip Events Conditions
12:53 AM 55.0 °F - 52.0 °F 89% 30.14 in 8.0 mi Calm Calm - N/A   Clear
1:53 AM 54.0 °F - 51.1 °F 90% 30.13 in 10.0 mi Calm Calm - N/A   Clear
2:53 AM 54.0 °F - 48.9 °F 83% 30.11 in 10.0 mi Calm Calm - N/A   Clear
3:53 AM 53.1 °F - 50.0 °F 89% 30.08 in 8.0 mi Calm Calm - N/A   Clear
4:53 AM 52.0 °F - 48.0 °F 86% 30.08 in 10.0 mi Calm Calm - N/A   Unknown
5:23 AM 50.0 °F - 46.4 °F 87% 30.08 in 1.8 mi Calm Calm - N/A   Mist
5:26 AM 50.0 °F - 46.4 °F 87% 30.08 in 0.8 mi Calm Calm - N/A   Mist
5:40 AM 51.8 °F - 48.2 °F 88% 30.09 in 2.0 mi Calm Calm - N/A   Overcast
5:49 AM 51.8 °F - 48.2 °F 88% 30.10 in 1.0 mi SE 5.8 mph - N/A   Mist
5:50 AM 51.1 °F - 48.0 °F 89% 30.10 in 1.0 mi SE 5.8 mph - N/A   Mist
5:54 AM 53.6 °F - 50.0 °F 88% 30.09 in 0.8 mi SE 3.5 mph - N/A   Mostly Cloudy
6:38 AM 53.6 °F - 51.8 °F 94% 30.09 in 2.0 mi Calm Calm - N/A   Overcast
6:53 AM 55.0 °F - 52.0 °F 89% 30.09 in 0.2 mi Calm Calm - N/A Fog Fog
7:50 AM 55.4 °F - 51.8 °F 88% 30.12 in 1.0 mi Calm Calm - N/A   Mist
7:51 AM 55.0 °F - 52.0 °F 89% 30.12 in 1.2 mi Calm Calm - N/A   Mist
7:58 AM 55.4 °F - 53.6 °F 94% 30.12 in 0.2 mi Calm Calm - N/A   Overcast
8:30 AM 55.4 °F - 53.6 °F 94% 30.12 in 0.1 mi ESE 3.5 mph - N/A Fog Fog
8:53 AM 57.0 °F - 54.0 °F 89% 30.11 in 0.2 mi SE 3.5 mph - N/A Fog Fog
9:04 AM 59.0 °F - 55.4 °F 88% 30.11 in 2.0 mi SSE 3.5 mph - N/A   Scattered Clouds
9:12 AM 60.8 °F - 57.2 °F 88% 30.11 in 9.0 mi SSE 4.6 mph - N/A   Scattered Clouds
9:53 AM 64.9 °F - 61.0 °F 87% 30.13 in 10.0 mi SSE 3.5 mph - N/A   Scattered Clouds
10:53 AM 73.9 °F - 57.9 °F 57% 30.13 in 10.0 mi South 10.4 mph - N/A   Scattered Clouds
11:53 AM 78.1 °F - 52.0 °F 40% 30.12 in 10.0 mi South 12.7 mph 18.4 mph N/A   Partly Cloudy
12:53 PM 81.0 °F 80.7 °F 55.0 °F 41% 30.10 in 10.0 mi SSE 11.5 mph - N/A   Scattered Clouds
1:53 PM 82.4 °F 81.7 °F 55.4 °F 39% 30.09 in 10.0 mi SSW 11.5 mph - N/A   Scattered Clouds
2:53 PM 84.0 °F 82.6 °F 54.0 °F 35% 30.07 in 10.0 mi South 11.5 mph 20.7 mph N/A   Scattered Clouds
3:53 PM 84.0 °F 82.6 °F 54.0 °F 35% 30.05 in 10.0 mi South 10.4 mph - N/A   Scattered Clouds
4:53 PM 82.0 °F 81.3 °F 54.0 °F 38% 30.03 in 10.0 mi SSW 12.7 mph - N/A   Mostly Cloudy
5:53 PM 81.0 °F 81.0 °F 57.0 °F 44% 30.03 in 10.0 mi SSW 12.7 mph 18.4 mph N/A   Mostly Cloudy
6:53 PM 75.9 °F - 55.0 °F 48% 30.04 in 10.0 mi South 9.2 mph - N/A   Mostly Cloudy
7:53 PM 73.0 °F - 55.9 °F 55% 30.05 in 10.0 mi South 4.6 mph - N/A   Mostly Cloudy
8:53 PM 69.1 °F - 60.1 °F 73% 30.06 in 10.0 mi SSE 5.8 mph - N/A   Mostly Cloudy
9:53 PM 66.0 °F - 61.0 °F 84% 30.06 in 10.0 mi SSE 5.8 mph - N/A   Mostly Cloudy
11:53 PM 63.0 °F - 60.1 °F 90% 30.05 in 9.0 mi ESE 3.5 mph - N/A   Clear